Starlink 34386

operational
NORAD ID: 66096 Int'l Des: 2025-236 Owner: SPXS Country: US Constellation: starlink
NOTLE

About Starlink 34386

Description loading...

Live Position

Loading 3D Globe...

Upcoming Passes

Altitude History

Altitude vs Time

uPlot chart will show altitude changes over time

Two-Line Element Set

1 66096C 25236M 25293.06298611 .00559970 00000+0 85590-3 0 2930
2 66096 53.1611 48.3561 0008625 262.6084 245.6092 16.03033000 17
Epoch: Oct 20, 2025 • Age: 141 hours

Current Status

Altitude 244.0 km
Velocity 7.76 km/s
Sub-Earth Point 3.57°N, 27.54°E
Launch Date Oct 19, 2025
Age 6 days
Type internet

Technical Details

Classification Payload
Mass 575.00 kg
Dry Mass 530.00 kg
Total Mass 575.00 kg
Length 0.30 m
Diameter 4.10 m
Span 29.00 m
Shape Box + pan
Manufacturer SPXS
Bus Type Starlink V2MO
Phase Status In Orbit
Owner/State SPXS/US

Large Constellations

Loading constellations...